TimeEST,TemperatureF,Dew PointF,Humidity,Sea Level PressureIn,VisibilityMPH,Wind Direction,Wind SpeedMPH,Gust SpeedMPH,PrecipitationIn,Events,Conditions,WindDirDegrees,DateUTC
12:53 AM,46.0,33.1,61,29.98,10.0,NNE,8.1,-,N/A,,Overcast,20,2012-11-06 05:53:00
1:53 AM,45.0,34.0,65,29.98,10.0,ENE,3.5,-,N/A,,Overcast,60,2012-11-06 06:53:00
2:53 AM,46.0,32.0,58,29.99,10.0,NE,3.5,-,N/A,,Overcast,40,2012-11-06 07:53:00
3:53 AM,44.1,36.0,73,29.99,10.0,SW,4.6,-,0.00,Rain,Light Rain,220,2012-11-06 08:53:00
4:53 AM,43.0,37.9,82,29.99,10.0,Calm,Calm,-,0.01,Rain,Light Rain,0,2012-11-06 09:53:00
5:53 AM,43.0,37.9,82,29.99,10.0,Calm,Calm,-,0.01,Rain,Light Rain,0,2012-11-06 10:53:00
6:53 AM,43.0,39.0,86,30.00,9.0,Calm,Calm,-,0.02,Rain,Light Rain,0,2012-11-06 11:53:00
7:53 AM,43.0,39.9,89,30.02,5.0,Calm,Calm,-,0.02,Rain,Light Rain,0,2012-11-06 12:53:00
8:53 AM,43.0,39.0,86,30.03,6.0,NE,4.6,-,0.01,Rain,Light Rain,50,2012-11-06 13:53:00
9:18 AM,44.6,41.0,87,30.03,7.0,NE,3.5,-,0.00,Rain,Light Rain,40,2012-11-06 14:18:00
9:53 AM,46.0,42.1,86,30.03,7.0,NNE,9.2,-,0.01,,Mostly Cloudy,30,2012-11-06 14:53:00
10:53 AM,50.0,43.0,77,30.01,10.0,Calm,Calm,-,N/A,,Mostly Cloudy,0,2012-11-06 15:53:00
11:30 AM,48.2,42.8,82,30.00,10.0,NNE,3.5,-,N/A,,Mostly Cloudy,30,2012-11-06 16:30:00
11:53 AM,50.0,42.1,74,30.00,10.0,Calm,Calm,-,N/A,,Overcast,0,2012-11-06 16:53:00
12:23 PM,50.0,42.8,76,29.99,10.0,NW,3.5,-,N/A,,Overcast,310,2012-11-06 17:23:00
12:53 PM,51.1,43.0,74,29.97,10.0,Calm,Calm,-,N/A,,Overcast,0,2012-11-06 17:53:00
1:05 PM,51.8,42.8,71,29.97,10.0,West,3.5,-,N/A,,Overcast,260,2012-11-06 18:05:00
1:51 PM,50.0,42.8,76,29.95,10.0,NE,3.5,-,N/A,,Overcast,40,2012-11-06 18:51:00
1:53 PM,50.0,42.1,74,29.96,10.0,NNE,3.5,-,N/A,,Overcast,30,2012-11-06 18:53:00
2:53 PM,48.9,42.1,77,29.95,7.0,West,3.5,-,0.00,Rain,Light Rain,270,2012-11-06 19:53:00
3:53 PM,48.0,43.0,83,29.95,7.0,Calm,Calm,-,0.01,Rain,Light Rain,0,2012-11-06 20:53:00
4:35 PM,48.2,42.8,82,29.96,5.0,Calm,Calm,-,0.01,,Haze,0,2012-11-06 21:35:00
4:53 PM,48.0,43.0,83,29.96,5.0,NE,3.5,-,0.01,,Haze,40,2012-11-06 21:53:00
5:04 PM,46.4,42.8,87,29.95,4.0,NE,6.9,-,0.00,,Drizzle,40,2012-11-06 22:04:00
5:30 PM,46.4,42.8,87,29.95,5.0,NE,5.8,-,0.00,,Overcast,50,2012-11-06 22:30:00
5:53 PM,46.0,43.0,89,29.96,6.0,ENE,5.8,-,0.00,,Overcast,60,2012-11-06 22:53:00
6:35 PM,46.4,44.6,93,29.95,6.0,East,3.5,-,N/A,,Overcast,90,2012-11-06 23:35:00
6:53 PM,45.0,43.0,93,29.96,7.0,East,4.6,-,N/A,,Overcast,90,2012-11-06 23:53:00
7:53 PM,46.0,43.0,89,29.96,5.0,Calm,Calm,-,N/A,,Overcast,0,2012-11-07 00:53:00
8:53 PM,46.0,43.0,89,29.96,5.0,Calm,Calm,-,N/A,,Overcast,0,2012-11-07 01:53:00
9:53 PM,46.0,42.1,86,29.96,6.0,Calm,Calm,-,0.00,Rain,Light Rain,0,2012-11-07 02:53:00
10:53 PM,46.0,43.0,89,29.94,7.0,Calm,Calm,-,0.00,,Overcast,0,2012-11-07 03:53:00
11:25 PM,46.4,44.6,93,29.93,5.0,SW,4.6,-,0.00,Rain,Light Rain,220,2012-11-07 04:25:00
11:33 PM,46.4,42.8,87,29.92,6.0,SSW,3.5,-,0.00,Rain,Light Rain,210,2012-11-07 04:33:00
11:53 PM,46.0,43.0,89,29.92,4.0,SW,3.5,-,0.00,Rain,Light Rain,220,2012-11-07 04:53:00